Regional Weather Roundup
Issued by NWS

Home | Current Version | Previous Version | Graphics & Text | Print | Product List | Glossary On
Versions: 1 2 3 4 5 6 7 8 9 10 11 12 13 14 15 16 17 18 19 20 21 22 23 24 25 26 27 28 29 30 31 32 33 34 35 36 37 38 39 40 41 42 43 44 45 46 47 48 49 50
000
ASUS43 KMKX 050811
RWRWI

WISCONSIN REGIONAL WEATHER ROUNDUP
NATIONAL WEATHER SERVICE MILWAUKEE/SULLIVAN WI
300 AM CDT WED AUG 05 2015

NOTE: "FAIR" INDICATES FEW OR NO CLOUDS BELOW 12,000 FEET WITH NO
SIGNIFICANT WEATHER AND/OR OBSTRUCTIONS TO VISIBILITY.

WIZ001-002-006>008-014>016-023>028-050900-
NORTHWEST WISCONSIN

CITY           SKY/WX    TMP DP  RH WIND       PRES   REMARKS
SUPERIOR ARPT  CLEAR     47  46  98 CALM      30.08S
ASHLAND        FOG       47  47 100 CALM      30.08F VSB 1
HAYWARD        CLEAR     50  47  89 CALM      30.08S
SIREN          CLEAR     52  50  93 CALM      30.08R
CUMBERLAND     CLEAR     52  50  93 CALM      30.07S
RICE LAKE      FOG       51  49  94 CALM      30.08S VSB 1/2
CHETEK         CLEAR     56  54  90 E3        30.07R
LADYSMITH      FAIR      54  51  89 CALM      30.09R
EAU CLAIRE     CLEAR     58  54  86 NE5       30.05R
MENOMONIE      CLEAR     58  55  90 NW3       30.05R
NEW RICHMOND   CLEAR     57  55  92 E3        30.06R
OSCEOLA        CLEAR     60  59  97 CALM      30.08R
$$

WIZ003>005-009-010-017-018-050900-
NORTH CENTRAL WISCONSIN

CITY           SKY/WX    TMP DP  RH WIND       PRES   REMARKS
MANITOWISH WTR FOG       42  42 100 CALM      30.09R VSB 3/4
ARBOR VITAE    CLEAR     46  44  93 CALM      30.08S
WOODRUFF       CLEAR     46  44  93 CALM      30.08S
RHINELANDER    CLEAR     49  46  90 CALM      30.09R
EAGLE RIVER    FOG       44  44 100 CALM      30.09R VSB 3/4
LAND O LAKES   CLEAR     40  40  99 CALM      30.10R
PHILLIPS       CLEAR     51  51  99 CALM      30.08R
TOMAHAWK       CLOUDY    55  52  89 CALM      30.09R
MEDFORD        CLEAR     51  49  96 NE3       30.07S
MERRILL        NOT AVBL
$$

WIZ029-030-035-036-043>047-050900-
CENTRAL WISCONSIN

CITY           SKY/WX    TMP DP  RH WIND       PRES   REMARKS
WAUSAU         CLEAR     57  52  83 CALM      30.05S
MOSINEE        CLEAR     54  52  94 NE5       30.07S
MARSHFIELD     CLEAR     58  51  78 NE6       30.05S
STEVENS POINT  MOCLDY    51  49  93 N3        30.06R
WAUPACA        CLEAR     56  55  97 CALM      30.05R
WAUTOMA        PTCLDY    57  54  90 CALM      30.05R
WISC RAPIDS    PTCLDY    57  53  86 CALM      30.06R
CAMP DOUGLAS   PTCLDY    54  54 100 E2        30.03S
$$

WIZ011>013-019>022-031-037>040-048>050-050900-
NORTHEAST WISCONSIN

CITY           SKY/WX    TMP DP  RH WIND       PRES   REMARKS
ANTIGO         CLOUDY    54  52  92 NE3       30.08S
SHAWANO        PTCLDY    62  58  87 E3        30.06S
OCONTO         CLEAR     55  55 100 N3        30.05S
STURGEON BAY   CLEAR     59  52  77 E3        30.08R
GREEN BAY      CLEAR     56  54  93 CALM      30.05R
MANITOWOC      CLEAR     58  57  97 MISG      30.04R
APPLETON       CLEAR     57  55  94 CALM      30.04S
CLINTONVILLE   CLEAR     55  54  94 NE3       30.05S
OSHKOSH        CLEAR     55  53  93 CALM      30.03S
$$

WIZ032>034-041-042-053>061-050900-
SOUTHWEST WISCONSIN

CITY           SKY/WX    TMP DP  RH WIND       PRES   REMARKS
LA CROSSE      CLEAR     60  57  89 SE5       30.04R
SPARTA         PTCLDY    51  49  94 CALM      30.05S
VIROQUA        CLEAR     56  56 100 CALM      30.06S
BOSCOBEL       PTCLDY    53  52  96 CALM      30.05S
PRAIRIE DU CHI PTCLDY    57  55  91 CALM      30.04S
PLATTEVILLE    CLEAR     61  55  82 CALM      30.05S
$$

WIZ056-057-062-063-064-067-068-050900-
SOUTH CENTRAL WISCONSIN

CITY           SKY/WX    TMP DP  RH WIND       PRES   REMARKS
REEDSBURG      CLEAR     55  54  99 CALM      30.05R
BARABOO/DELLS  CLEAR     55  52  89 CALM      30.05R
LONE ROCK      CLEAR     54  51  90 CALM      30.06R FOG
MINERAL POINT  PTCLDY    61  54  77 CALM      30.06R
MADISON        PTCLDY    57  54  89 CALM      30.04S
MIDDLETON      PTCLDY    55  53  94 CALM      30.05S
WATERTOWN      CLEAR     55  55 100 CALM      30.04R
MONROE         PTCLDY    64  54  68 NW6       30.04F
JANESVILLE     PTCLDY    59  55  88 CALM      30.03F
$$

WIZ051-052-058>065-066-070>072-050900-
SOUTHEAST WISCONSIN

CITY           SKY/WX    TMP DP  RH WIND       PRES   REMARKS
MILWAUKEE      MOCLDY    63  56  78 CALM      30.03S
WAUKESHA       PTCLDY    55  52  88 CALM      30.05S
MILWAUKEE/TIMM CLEAR     61  52  72 CALM      30.04S
RACINE         MOCLDY    63  56  78 W6        30.04S
BURLINGTON     CLEAR     53  52  97 CALM      30.04S
KENOSHA        CLEAR     57  55  93 W3        30.04R
FOND DU LAC    CLEAR     57  55  93 CALM      30.04R
SHEBOYGAN      CLEAR     56  54  93 N5        30.03S
WEST BEND      CLEAR     55  54  94 CALM      30.04R
JUNEAU         MOCLDY    56  54  93 CALM      30.05S
$$

LSZ147-162-050900-
LAKE SUPERIOR

STATION/POSITION TIME  TEMP    WIND        PRES    WAVE
                       AIR SEA DIR/SP/G            HT/PER
                 (UTC) (F)     (DEG/KT/KT) (MB)    (FT/S)
W MID LAKE BUOY  0750   57 57  290/  8/ 10 1018.6R   0
DEVILS ISLAND    0800   58     350/  6/  8 1019.0S
PORT WING        0700   54     170/  2/  4 1018.6
SAXON HARBOR     0740   51     210/  3/  5 1017.9F
$$

LMZ867-665-643>646-050900-
LAKE MICHIGAN

STATION/POSITION TIME  TEMP    WIND        PRES    WAVE
                       AIR SEA DIR/SP/G            HT/PER
                 (UTC) (F)     (DEG/KT/KT) (MB)    (FT/S)
CHAMBERS ISLAND  0700   64      10/  6/  8 1017.3F
S GREEN BAY BUOY 0800   65 71   80/ 10/ 14 1018.7
N MID LAKE BUOY  0750   61 68  310/  8/ 10 1017.5F   1/ 3
NORTHPORT PIER   0700   63     320/  6/ 10 1017.6S
SISTER BAY       0718   58     130/  5/  6   N/A
ALGOMA LAKESHORE 0713           50/  9/ 11   N/A
KEWAUNEE LAKESHO 0700   61      20/  5/  8 1016.4F
SHEBOYGAN LAKESH 0800   62     340/  7/  8 1017.0R
PORT WASHINGTON  0700   64     300/  4/  7 1017.3S
ATWATER BUOY     0800   62 60  250/  4/  4 1018.1R
MILWAUKEE LAKESH 0700   68     280/  4/  4   N/A
KENOSHA   LAKESH 0800   66     270/  6/  8 1016.6S
$$

TC  - TEMPERATURE IN CELSIUS
VSB - VISIBILITY IN STATUTE MILES
WCI - WIND CHILL INDEX
HX  - HEAT INDEX




USA.gov is the U.S. government's official web portal to all federal, state and local government web resources and services.